Location: Erskine
(52.3216°N, 112.8806°W)
Time: 12:30:02
(UTC+00:00)

NOAA 15 - Visible Passes

Search period start: 08 December 2023 00:00
Search period end: 18 December 2023 00:00
Orbit: 796 x 811 km, 98.6° (Epoch: 08 December)

Date Brightness Start Highest point End Pass type
(mag) Time Alt. Az. Time Alt. Az. Time Alt. Az.
08 Dec 4.8 01:24:11 10° SE 01:29:10 44° ENE 01:34:12 10° N visible
08 Dec 6.1 03:04:15 10° SSW 03:09:03 34° W 03:13:53 10° NNW visible
09 Dec 5.3 00:59:14 10° ESE 01:03:48 30° ENE 01:08:20 10° N visible
09 Dec 5.2 02:38:08 10° S 02:43:19 54° W 02:48:30 10° NNW visible
09 Dec 6.3 14:46:55 10° NNE 14:51:49 38° E 14:56:40 10° SSE visible
10 Dec 5.8 00:34:38 10° ESE 00:38:29 21° NE 00:42:20 10° N visible
10 Dec 4.6 02:12:22 10° SSE 02:17:40 83° WSW 02:22:59 10° NNW visible
10 Dec 7.3 03:55:18 10° WSW 03:58:15 15° W 04:01:14 10° NW visible
10 Dec 7.0 14:21:43 10° NE 14:25:59 25° E 14:30:14 10° SE visible
11 Dec 6.1 00:10:28 10° E 00:13:16 15° NE 00:16:05 10° NNE visible
11 Dec 4.5 01:46:53 10° SSE 01:52:07 65° ENE 01:57:21 10° N visible
11 Dec 6.7 03:28:09 10° SW 03:32:19 23° W 03:36:31 10° NW visible
11 Dec 7.4 13:56:56 10° NE 14:00:04 16° E 14:03:11 10° ESE visible
12 Dec 4.9 01:21:41 10° SE 01:26:39 43° ENE 01:31:36 10° N visible
12 Dec 6.0 03:01:39 10° SSW 03:06:29 36° W 03:11:21 10° NNW visible
13 Dec 5.4 00:56:47 10° ESE 01:01:16 29° ENE 01:05:44 10° N visible
13 Dec 5.2 02:35:34 10° S 02:40:45 56° W 02:45:58 10° NNW visible
13 Dec 6.3 14:44:23 10° NNE 14:49:14 36° E 14:54:03 10° SSE visible
14 Dec 5.8 00:32:12 10° E 00:35:58 20° NE 00:39:44 10° N visible
14 Dec 4.5 02:09:49 10° SSE 02:15:07 86° WSW 02:20:26 10° NNW visible
14 Dec 7.2 03:52:34 10° WSW 03:55:40 16° W 03:58:47 10° NW visible
14 Dec 7.1 14:19:13 10° NE 14:23:24 24° E 14:27:34 10° SE visible
15 Dec 6.2 00:08:05 10° E 00:10:45 14° NE 00:13:25 10° NNE visible
15 Dec 4.5 01:44:22 10° SSE 01:49:34 62° ENE 01:54:47 10° N visible
15 Dec 6.6 03:25:29 10° SW 03:29:45 24° W 03:34:00 10° NW visible
15 Dec 7.5 13:54:29 10° NE 13:57:28 15° E 14:00:26 10° ESE visible
16 Dec 4.9 01:19:12 10° SE 01:24:05 41° ENE 01:29:01 10° N visible
16 Dec 5.9 02:59:02 10° SSW 03:03:55 37° W 03:08:49 10° NNW visible
17 Dec 5.4 00:54:18 10° ESE 00:58:43 28° ENE 01:03:09 10° N visible
17 Dec 5.1 02:32:59 10° S 02:38:11 58° WSW 02:43:25 10° NNW visible
17 Dec 6.4 14:41:51 10° NNE 14:46:39 35° E 14:51:25 10° SSE visible
